Home > Weather > Cairo > Past weeks

Flag for Egypt Weather for the Past 2 Weeks in Cairo, Egypt

Now
63 °F

Clear.


Feels Like: 63 °F
Forecast: 49 / 77 °F
Wind: 9 mph from East

Location: Cairo Airport

Current Time: Feb 12, 2016 at 10:40:56 PM

Latest Report: Feb 12, 2016 at 10:00 PM


Visibility: 10 mi

Pressure: 30.15 "Hg

Humidity: 52%

Dew point: 45 °F

Location of CairoLocation

Historic Weather in Cairo — Graph

°F

Cairo Temperature Yesterday

Maximum temperature yesterday: 68 °F (at 1:30 PM)
Minimum temperature yesterday: 52 °F (at 4:00 AM)
Average temperature yesterday: 61 °F

High & Low Weather Summary for the Past Weeks

 TemperatureHumidityPressure
High77 °F (Feb 4, 2:00 PM)100% (Feb 3, 7:00 AM)30.45 "Hg (Feb 3, 7:00 AM)
Low41 °F (Jan 29, 7:00 AM)22% (Feb 4, 3:00 PM)29.95 "Hg (Feb 5, 3:00 AM)
Average58 °F60%30.21 "Hg
* Reported Jan 28 9:00 PM — Feb 12 9:30 PM, Cairo, Weather by CustomWeather, © 2016

Note: Actual official high and low records may vary slightly from our data, if they occured in-between our weather recording intervals... More about our weather records

Advertising

Cairo Weather History for the Previous 24 Hours

 ConditionsComfort  
Time TempWeatherWind HumidityBarometerVisibility
9:30 PM
Fri, Feb 12
64 °FClear.9 mph49%30.18 "Hg10 mi
9:00 PM64 °FClear.9 mph52%30.18 "Hg10 mi
8:30 PM66 °FClear.9 mph49%30.18 "Hg10 mi
8:00 PM66 °FClear.9 mph49%30.18 "Hg10 mi
7:30 PM68 °FClear.9 mph49%30.18 "Hg10 mi
7:00 PM68 °FClear.9 mph49%30.15 "Hg10 mi
6:30 PM70 °FClear.9 mph46%30.18 "Hg10 mi
6:00 PM70 °FClear.9 mph46%30.15 "Hg10 mi
5:30 PM70 °FSunny.9 mph27%30.15 "Hg10 mi
5:00 PM73 °FSunny.9 mph31%30.15 "Hg10 mi
4:30 PM73 °FSunny.8 mph33%30.15 "Hg10 mi
4:00 PM73 °FSunny.3 mph33%30.15 "Hg10 mi
3:30 PM75 °FSunny.3 mph31%30.15 "Hg10 mi
3:00 PM73 °FSunny.6 mph29%30.15 "Hg10 mi
2:30 PM73 °FSunny.6 mph29%30.15 "Hg10 mi
2:00 PM73 °FSunny.7 mph29%30.15 "Hg10 mi
1:30 PM73 °FSunny.6 mph29%30.15 "Hg10 mi
1:00 PM72 °FSunny.8 mph31%30.18 "Hg10 mi
12:30 PM70 °FSunny.6 mph35%30.18 "Hg10 mi
12:00 PM70 °FSunny.5 mph35%30.21 "Hg10 mi
11:30 AM70 °FSunny.5 mph35%30.21 "Hg10 mi
11:00 AM68 °FSunny.2 mph38%30.21 "Hg10 mi
10:30 AM68 °FClear.2 mph38%30.21 "Hg4 mi
10:00 AM68 °FClear.No wind40%30.24 "Hg4 mi
9:30 AM66 °FClear.No wind43%30.24 "Hg4 mi
9:00 AM63 °FClear.No wind56%30.24 "Hg4 mi
8:30 AM59 °FSunny.No wind59%30.24 "Hg10 mi
8:00 AM55 °FSunny.3 mph63%30.24 "Hg10 mi
7:30 AM54 °FSunny.1 mph67%30.24 "Hg10 mi
7:00 AM54 °FSunny.No wind63%30.21 "Hg10 mi
6:30 AM52 °FClear.No wind67%30.21 "Hg10 mi
6:00 AM52 °FClear.No wind67%30.21 "Hg10 mi
5:30 AM52 °FClear.No wind67%30.21 "Hg10 mi
5:00 AM54 °FClear.No wind67%30.21 "Hg10 mi
4:30 AM54 °FClear.No wind67%30.21 "Hg10 mi
4:00 AM54 °FClear.No wind67%30.21 "Hg10 mi
3:30 AM55 °FClear.No wind63%30.18 "Hg10 mi
3:00 AM55 °FClear.No wind67%30.18 "Hg10 mi
2:30 AM55 °FClear.No wind67%30.21 "Hg10 mi
2:00 AM57 °FClear.7 mph63%30.21 "Hg10 mi
1:30 AM57 °FClear.8 mph63%30.21 "Hg10 mi
1:00 AM59 °FClear.7 mph59%30.21 "Hg10 mi
12:00 AM59 °FClear.7 mph63%30.21 "Hg10 mi
11:30 PM
Thu, Feb 11
61 °FClear.8 mph59%30.21 "Hg10 mi
11:00 PM61 °FClear.3 mph59%30.24 "Hg10 mi
10:30 PM61 °FClear.7 mph59%30.24 "Hg10 mi
10:00 PM63 °FClear.8 mph49%30.24 "Hg10 mi
Weather by CustomWeather, © 2016

See weather overviewHow to use our weather pages